• In Hungary
  • List of Countries
  • For 7 days
  • Water Temperature
  • Satellite Maps
  • Weather Map
  • News
  • Weather Widgets
  • user-avatar
    Login

    Hourly Weather Ondjiwa

    Today, 25 November, Saturday

    Time Temperature Precipitation Wind Pressure Humidity
    00:00 +27°C° 0 mm 2 mps 667 mmHg 46%
    01:00 +27°C° 0 mm 2 mps 667 mmHg 48%
    02:00 +26°C° 0 mm 2 mps 666 mmHg 49%
    03:00 +26°C° 0 mm 2 mps 666 mmHg 49%
    04:00 +25°C° 0 mm 1 mps 666 mmHg 50%
    05:00 +26°C° 0 mm 1 mps 667 mmHg 46%
    06:00 +27°C° 0 mm 1 mps 667 mmHg 43%
    07:00 +28°C° 0 mm 1 mps 668 mmHg 39%
    08:00 +30°C° 0 mm 2 mps 668 mmHg 34%
    09:00 +32°C° 0 mm 2 mps 668 mmHg 28%
    10:00 +36°C° 0 mm 2 mps 668 mmHg 23%
    11:00 +37°C° 0 mm 2 mps 668 mmHg 21%
    12:00 +38°C° 0 mm 3 mps 667 mmHg 19%
    13:00 +39°C° 0 mm 3 mps 667 mmHg 17%
    14:00 +39°C° 0 mm 3 mps 666 mmHg 15%
    15:00 +39°C° 0 mm 3 mps 666 mmHg 14%
    16:00 +39°C° 0 mm 3 mps 665 mmHg 13%
    17:00 +37°C° 0 mm 3 mps 665 mmHg 14%
    18:00 +35°C° 0 mm 2 mps 665 mmHg 15%
    19:00 +34°C° 0 mm 2 mps 664 mmHg 16%
    20:00 +32°C° 0 mm 2 mps 665 mmHg 16%
    21:00 +31°C° 0 mm 2 mps 665 mmHg 17%
    22:00 +30°C° 0 mm 2 mps 666 mmHg 17%
    23:00 +29°C° 0 mm 2 mps 666 mmHg 20%

    Tomorrow, 26 November, Sunday

    Time Temperature Precipitation Wind Pressure Humidity
    00:00 +28°C° 0 mm 3 mps 666 mmHg 22%
    01:00 +27°C° 0 mm 3 mps 665 mmHg 25%
    02:00 +26°C° 0 mm 3 mps 665 mmHg 27%
    03:00 +25°C° 0 mm 3 mps 665 mmHg 29%
    04:00 +24°C° 0 mm 2 mps 665 mmHg 30%
    05:00 +25°C° 0 mm 3 mps 666 mmHg 29%
    06:00 +26°C° 0 mm 3 mps 666 mmHg 27%
    07:00 +27°C° 0 mm 4 mps 667 mmHg 26%
    08:00 +30°C° 0 mm 4 mps 667 mmHg 21%
    09:00 +33°C° 0 mm 4 mps 668 mmHg 15%
    10:00 +35°C° 0 mm 4 mps 668 mmHg 10%
    11:00 +37°C° 0 mm 4 mps 668 mmHg 10%
    12:00 +38°C° 0 mm 4 mps 667 mmHg 9%
    13:00 +40°C° 0 mm 4 mps 667 mmHg 8%
    14:00 +40°C° 0 mm 4 mps 666 mmHg 8%
    15:00 +40°C° 0 mm 4 mps 665 mmHg 8%
    16:00 +40°C° 0 mm 4 mps 665 mmHg 8%
    17:00 +37°C° 0 mm 3 mps 665 mmHg 10%
    18:00 +35°C° 0 mm 3 mps 665 mmHg 11%
    19:00 +32°C° 0 mm 2 mps 665 mmHg 12%
    20:00 +31°C° 0 mm 3 mps 665 mmHg 13%
    21:00 +32°C° 0 mm 4 mps 666 mmHg 15%
    22:00 +30°C° 0 mm 4 mps 667 mmHg 16%
    23:00 +29°C° 0 mm 4 mps 667 mmHg 20%

    Day after tomorrow, 27 November, Monday

    Time Temperature Precipitation Wind Pressure Humidity
    00:00 +27°C° 0 mm 3 mps 666 mmHg 23%
    01:00 +26°C° 0 mm 3 mps 666 mmHg 26%
    02:00 +26°C° 0 mm 3 mps 666 mmHg 27%
    03:00 +25°C° 0 mm 3 mps 666 mmHg 27%
    04:00 +25°C° 0 mm 3 mps 666 mmHg 28%
    05:00 +25°C° 0 mm 3 mps 667 mmHg 27%
    06:00 +26°C° 0 mm 4 mps 667 mmHg 25%
    07:00 +26°C° 0 mm 4 mps 668 mmHg 24%
    08:00 +28°C° 0 mm 4 mps 668 mmHg 19%
    09:00 +32°C° 0 mm 4 mps 668 mmHg 15%
    10:00 +34°C° 0 mm 4 mps 669 mmHg 11%
    11:00 +35°C° 0 mm 4 mps 668 mmHg 9%
    12:00 +37°C° 0 mm 4 mps 668 mmHg 8%
    13:00 +40°C° 0 mm 4 mps 667 mmHg 7%
    14:00 +40°C° 0 mm 4 mps 666 mmHg 7%
    15:00 +40°C° 0 mm 4 mps 666 mmHg 7%
    16:00 +39°C° 0 mm 3 mps 665 mmHg 7%
    17:00 +37°C° 0 mm 3 mps 665 mmHg 8%
    18:00 +35°C° 0 mm 2 mps 665 mmHg 9%
    19:00 +32°C° 0 mm 1 mps 665 mmHg 11%
    20:00 +31°C° 0 mm 3 mps 666 mmHg 13%
    21:00 +30°C° 0 mm 4 mps 666 mmHg 16%
    22:00 +29°C° 0 mm 5 mps 667 mmHg 19%
    23:00 +28°C° 0 mm 5 mps 667 mmHg 24%

    28 November, Tuesday

    Time Temperature Precipitation Wind Pressure Humidity
    00:00 +27°C° 0 mm 4 mps 666 mmHg 28%
    01:00 +25°C° 0 mm 4 mps 666 mmHg 33%
    02:00 +25°C° 0 mm 3 mps 666 mmHg 35%
    03:00 +24°C° 0 mm 3 mps 666 mmHg 37%
    04:00 +23°C° 0 mm 2 mps 666 mmHg 39%
    05:00 +22°C° 0 mm 3 mps 666 mmHg 37%
    06:00 +24°C° 0 mm 3 mps 667 mmHg 35%
    07:00 +24°C° 0 mm 3 mps 668 mmHg 32%
    08:00 +27°C° 0 mm 3 mps 668 mmHg 26%
    09:00 +29°C° 0 mm 3 mps 668 mmHg 20%
    10:00 +33°C° 0 mm 4 mps 669 mmHg 14%
    11:00 +34°C° 0 mm 4 mps 668 mmHg 12%
    12:00 +36°C° 0 mm 4 mps 668 mmHg 10%
    13:00 +38°C° 0 mm 4 mps 667 mmHg 8%
    14:00 +38°C° 0 mm 4 mps 666 mmHg 8%
    15:00 +38°C° 0 mm 4 mps 666 mmHg 8%
    16:00 +39°C° 0 mm 3 mps 665 mmHg 8%
    17:00 +37°C° 0 mm 3 mps 665 mmHg 9%
    18:00 +34°C° 0 mm 2 mps 665 mmHg 10%
    19:00 +31°C° 0 mm 1 mps 665 mmHg 11%
    20:00 +31°C° 0 mm 2 mps 666 mmHg 12%
    21:00 +30°C° 0 mm 2 mps 666 mmHg 12%
    22:00 +29°C° 0 mm 3 mps 666 mmHg 12%
    23:00 +28°C° 0 mm 3 mps 666 mmHg 16%

    29 November, Wednesday

    Time Temperature Precipitation Wind Pressure Humidity
    00:00 +27°C° 0 mm 3 mps 666 mmHg 20%
    01:00 +26°C° 0 mm 3 mps 666 mmHg 24%
    02:00 +25°C° 0 mm 3 mps 666 mmHg 26%
    03:00 +24°C° 0 mm 3 mps 666 mmHg 27%
    04:00 +24°C° 0 mm 3 mps 666 mmHg 29%
    05:00 +25°C° 0 mm 3 mps 667 mmHg 27%
    06:00 +25°C° 0 mm 3 mps 667 mmHg 25%
    07:00 +26°C° 0 mm 2 mps 668 mmHg 23%
    08:00 +29°C° 0 mm 3 mps 668 mmHg 20%
    09:00 +31°C° 0 mm 3 mps 669 mmHg 17%
    10:00 +34°C° 0 mm 3 mps 669 mmHg 14%
    11:00 +35°C° 0 mm 3 mps 669 mmHg 14%
    12:00 +37°C° 0 mm 2 mps 668 mmHg 13%
    13:00 +38°C° 0 mm 2 mps 668 mmHg 13%
    14:00 +38°C° 0 mm 2 mps 667 mmHg 13%
    15:00 +37°C° 0 mm 1 mps 667 mmHg 13%
    16:00 +37°C° 0 mm 1 mps 666 mmHg 13%
    17:00 +36°C° 0 mm 1 mps 666 mmHg 15%
    18:00 +35°C° 0 mm 2 mps 666 mmHg 17%
    19:00 +34°C° 0 mm 2 mps 666 mmHg 20%
    20:00 +31°C° 0 mm 2 mps 666 mmHg 23%
    21:00 +30°C° 0 mm 2 mps 666 mmHg 26%
    22:00 +29°C° 0 mm 2 mps 667 mmHg 29%
    23:00 +29°C° 0 mm 2 mps 666 mmHg 32%

    30 November, Thursday

    Time Temperature Precipitation Wind Pressure Humidity
    00:00 +28°C° 0 mm 2 mps 666 mmHg 35%
    01:00 +27°C° 0 mm 2 mps 666 mmHg 37%
    02:00 +27°C° 0.1 mm 2 mps 666 mmHg 37%
    03:00 +27°C° 0.1 mm 2 mps 666 mmHg 37%
    04:00 +26°C° 0.1 mm 2 mps 666 mmHg 37%
    05:00 +27°C° 0 mm 2 mps 667 mmHg 35%
    06:00 +27°C° 0 mm 2 mps 668 mmHg 33%
    07:00 +28°C° 0 mm 2 mps 668 mmHg 31%
    08:00 +30°C° 0 mm 2 mps 668 mmHg 29%
    09:00 +34°C° 0 mm 3 mps 669 mmHg 26%
    10:00 +36°C° 0 mm 3 mps 669 mmHg 24%
    11:00 +37°C° 0 mm 3 mps 668 mmHg 22%
    12:00 +38°C° 0 mm 2 mps 668 mmHg 20%
    13:00 +38°C° 0 mm 2 mps 667 mmHg 19%
    14:00 +38°C° 0 mm 2 mps 666 mmHg 19%
    15:00 +36°C° 0 mm 1 mps 666 mmHg 20%
    16:00 +36°C° 0 mm 1 mps 665 mmHg 21%
    17:00 +35°C° 0 mm 1 mps 665 mmHg 22%
    18:00 +34°C° 0 mm 1 mps 666 mmHg 23%
    19:00 +34°C° 0 mm 2 mps 666 mmHg 24%
    20:00 +34°C° 0 mm 2 mps 666 mmHg 24%
    21:00 +33°C° 0 mm 1 mps 667 mmHg 25%
    22:00 +32°C° 0 mm 1 mps 667 mmHg 25%
    23:00 +31°C° 0 mm 2 mps 667 mmHg 27%
    Show more